This is the latest recevied weather packets stored in our database for station/object KN6ETB-1. If no packets are shown the sender has not sent any weather packets the latest 10 day(s).
| Time | Temp. | Humidity | Pressure | Rain* | Wind** | Luminosity | Snow |
|---|---|---|---|---|---|---|---|
| 1778018624 | 18.89° C | 70% | 1012.8 hPa | 0 mm | - | 267 W/m² | - |
| 1778018322 | 18.33° C | 72% | 1012.8 hPa | 0 mm | - | 313 W/m² | - |
| 1778018020 | 18.33° C | 72% | 1012.8 hPa | 0 mm | - | 329 W/m² | - |
| 1778017717 | 18.33° C | 73% | 1012.8 hPa | 0 mm | - | 319 W/m² | - |
| 1778017415 | 18.33° C | 74% | 1012.7 hPa | 0 mm | - | 319 W/m² | - |
| 1778017111 | 18.89° C | 72% | 1012.9 hPa | 0 mm | - | 260 W/m² | - |
| 1778016810 | 18.33° C | 75% | 1012.9 hPa | 0 mm | - | 228 W/m² | - |
| 1778016505 | 17.78° C | 75% | 1012.9 hPa | 0 mm | - | 191 W/m² | - |
| 1778016203 | 18.33° C | 74% | 1012.8 hPa | 0 mm | - | 150 W/m² | - |
| 1778015898 | 18.33° C | 71% | 1012.9 hPa | 0 mm | - | 130 W/m² | - |
| 1778015596 | 18.33° C | 71% | 1012.9 hPa | 0 mm | - | 168 W/m² | - |
| 1778015292 | 19.44° C | 70% | 1012.7 hPa | 0 mm | - | 251 W/m² | - |
| 1778014990 | 18.33° C | 71% | 1012.9 hPa | 0 mm | - | 354 W/m² | - |
| 1778014687 | 18.33° C | 70% | 1012.8 hPa | 0 mm | - | 498 W/m² | - |
| 1778014385 | 18.33° C | 69% | 1013.1 hPa | 0 mm | - | 316 W/m² | - |
| 1778014081 | 18.89° C | 71% | 1013 hPa | 0 mm | - | 722 W/m² | - |
| 1778013779 | 18.33° C | 72% | 1013.2 hPa | 0 mm | - | 535 W/m² | - |
| 1778013476 | 17.78° C | 74% | 1012.9 hPa | 0 mm | - | 860 W/m² | - |
| 1778013173 | 18.33° C | 74% | 1013.1 hPa | 0 mm | - | 776 W/m² | - |
| 1778012869 | 17.78° C | 74% | 1013.1 hPa | 0 mm | - | 809 W/m² | - |
| 1778012565 | 18.33° C | 75% | 1013.2 hPa | 0 mm | - | 291 W/m² | - |
| 1778012262 | 18.33° C | 76% | 1013.3 hPa | 0 mm | - | 604 W/m² | - |
| 1778011959 | 17.78° C | 75% | 1013.1 hPa | 0 mm | - | 393 W/m² | - |
| 1778011658 | 17.78° C | 77% | 1013 hPa | 0 mm | - | 693 W/m² | - |
| 1778011355 | 17.78° C | 76% | 1013.2 hPa | 0 mm | - | 601 W/m² | - |
* Rain latest hour (hover to see other rain measurements)
** Current wind speed in m/s (hover to see current wind gust speed)